CW2312 Weather Reports


time (UTC)temp
C
wind
direction
speed
KPH
gust
KPH
rain 1hr
cm
rain 24hr
cm
rain mn
cm
humidity
%
barometer
mb
20260903010910 30 0 0.0 0.0 0.00 0.00 0.00 70 1016.1
20260903010010 30 0 0.0 0.0 0.00 0.00 0.00 69 1016.0
20260903005109 30 0 0.0 0.0 0.00 0.00 0.00 69 1016.1
20260903004210 30 0 0.0 0.0 0.00 0.00 0.00 68 1016.0
20260903003309 31 0 0.0 0.0 0.00 0.00 0.00 67 1016.0
20260903002409 31 0 0.0 0.0 0.00 0.00 0.00 66 1016.0
20260903001509 31 0 0.0 0.0 0.00 0.00 0.00 65 1015.9
20260902235709 32 250 1.6 9.7 0.00 0.00 0.00 64 1015.9
20260902234809 32 218 0.0 8.0 0.00 0.00 0.00 63 1015.9
20260902233909 32 239 1.6 8.0 0.00 0.00 0.00 62 1016.0
20260902233009 32 242 1.6 11.3 0.00 0.00 0.00 61 1015.9
20260902232109 32 239 1.6 11.3 0.00 0.00 0.00 61 1015.9
20260902231209 33 242 4.8 17.7 0.00 0.00 0.00 60 1015.9
20260902230309 33 243 4.8 17.7 0.00 0.00 0.00 59 1015.9
20260902225409 33 244 4.8 14.5 0.00 0.00 0.00 59 1015.9
20260902224510 33 246 6.4 16.1 0.00 0.00 0.00 58 1016.1
20260902223608 33 240 4.8 16.1 0.00 0.00 0.00 58 1016.0
20260902220908 34 247 6.4 16.1 0.00 0.00 0.00 57 1016.1
20260902220008 34 249 6.4 17.7 0.00 0.00 0.00 57 1016.2
20260902215109 34 229 4.8 16.1 0.00 0.00 0.00 56 1016.1
20260902214208 34 258 3.2 12.9 0.00 0.00 0.00 56 1016.2
20260902213310 35 250 4.8 19.3 0.00 0.00 0.00 55 1016.1
20260902212408 35 274 6.4 16.1 0.00 0.00 0.00 55 1016.3
20260902211508 35 273 6.4 16.1 0.00 0.00 0.00 55 1016.3
20260902210608 35 265 6.4 19.3 0.00 0.00 0.00 55 1016.4
20260902205709 35 272 4.8 17.7 0.00 0.00 0.00 55 1016.4
20260902203908 35 245 3.2 17.7 0.00 0.00 0.00 56 1016.5
20260902203008 35 266 8.0 16.1 0.00 0.00 0.00 55 1016.6
20260902202108 35 264 6.4 16.1 0.00 0.00 0.00 54 1016.7
20260902201209 35 265 4.8 14.5 0.00 0.00 0.00 52 1016.7
20260902200308 35 277 6.4 17.7 0.00 0.00 0.00 54 1016.7
20260902195408 35 258 6.4 16.1 0.00 0.00 0.00 54 1016.9
20260902194508 35 278 6.4 16.1 0.00 0.00 0.00 53 1016.9
20260902193608 35 277 6.4 19.3 0.00 0.00 0.00 54 1017.0
20260902192708 35 238 3.2 12.9 0.00 0.00 0.00 54 1017.1
20260902191810 35 222 6.4 12.9 0.00 0.00 0.00 53 1017.1
20260902190909 35 249 4.8 16.1 0.00 0.00 0.00 53 1017.2
20260902190008 35 256 4.8 19.3 0.00 0.00 0.00 53 1017.4
20260902184208 35 265 6.4 17.7 0.00 0.00 0.00 54 1017.5
20260902183308 34 248 3.2 12.9 0.00 0.00 0.00 56 1017.6
20260902182408 34 275 4.8 20.9 0.00 0.00 0.00 55 1017.6
20260902181508 35 230 4.8 12.9 0.00 0.00 0.00 54 1017.7
20260902175708 35 268 4.8 14.5 0.00 0.00 0.00 56 1017.9
20260902174809 35 261 6.4 17.7 0.00 0.00 0.00 56 1017.9
20260902173008 34 287 6.4 19.3 0.00 0.00 0.00 57 1018.3
20260902172108 34 247 4.8 12.9 0.00 0.00 0.00 57 1018.3
20260902171208 34 253 3.2 16.1 0.00 0.00 0.00 58 1018.5
20260902170308 33 273 6.4 17.7 0.00 0.00 0.00 59 1018.4
20260902165408 33 279 6.4 19.3 0.00 0.00 0.00 59 1018.5
20260902164508 33 251 4.8 14.5 0.00 0.00 0.00 59 1018.5
20260902163608 33 249 4.8 16.1 0.00 0.00 0.00 61 1018.6
20260902162709 33 237 3.2 16.1 0.00 0.00 0.00 64 1018.5
20260902160009 32 251 3.2 16.1 0.00 0.00 0.00 64 1018.7
20260902155108 32 247 3.2 14.5 0.00 0.00 0.00 66 1018.7
20260902154209 32 242 1.6 11.3 0.00 0.00 0.00 66 1018.8
20260902153308 31 243 3.2 12.9 0.00 0.00 0.00 68 1018.7
20260902152409 31 250 3.2 11.3 0.00 0.00 0.00 68 1018.8
20260902150609 31 227 1.6 6.4 0.00 0.00 0.00 69 1018.8
20260902145709 30 237 1.6 6.4 0.00 0.00 0.00 70 1019.0
20260902144808 30 247 1.6 12.9 0.00 0.00 0.00 70 1018.9
20260902143908 30 250 1.6 9.7 0.00 0.00 0.00 71 1018.9
20260902143007 30 282 1.6 11.3 0.00 0.00 0.00 71 1018.9
20260902142108 30 281 1.6 11.3 0.00 0.00 0.00 72 1018.9
20260902141207 29 280 1.6 8.0 0.00 0.00 0.00 73 1018.8
20260902140308 28 228 0.0 6.4 0.00 0.00 0.00 73 1018.8
20260902134507 28 269 0.0 1.6 0.00 0.00 0.00 75 1018.8
20260902133609 28 236 0.0 6.4 0.00 0.00 0.00 76 1018.8
20260902132708 27 262 1.6 11.3 0.00 0.00 0.00 76 1018.9
20260902131808 27 274 0.0 6.4 0.00 0.00 0.00 78 1018.9
20260902125107 25 225 0.0 6.4 0.00 0.00 0.00 86 1018.8
20260902124207 25 217 0.0 6.4 0.00 0.00 0.00 89 1018.6
20260902123309 24 0 0.0 0.0 0.00 0.00 0.00 91 1018.8
20260902122407 23 203 0.0 6.4 0.00 0.00 0.00 91 1018.7
20260902121507 23 0 0.0 0.0 0.00 0.00 0.00 92 1018.6
20260902120607 23 0 0.0 0.0 0.00 0.00 0.00 92 1018.6
20260902115707 22 0 0.0 0.0 0.00 0.00 0.00 91 1018.4
20260902114807 22 0 0.0 0.0 0.00 0.00 0.00 91 1018.3
20260902113907 22 0 0.0 0.0 0.00 0.00 0.00 91 1018.2
20260902113007 22 0 0.0 0.0 0.00 0.00 0.00 91 1018.2
20260902112107 22 0 0.0 0.0 0.00 0.00 0.00 91 1018.2
20260902110307 22 0 0.0 0.0 0.00 0.00 0.00 91 1018.0
20260902105408 22 0 0.0 0.0 0.00 0.00 0.00 91 1017.8
20260902104507 22 0 0.0 0.0 0.00 0.00 0.00 90 1017.9
20260902103608 22 0 0.0 0.0 0.00 0.00 0.00 90 1017.9
20260902102707 22 0 0.0 0.0 0.00 0.00 0.00 90 1017.9
20260902101808 22 0 0.0 0.0 0.00 0.00 0.00 90 1017.9
20260902100007 22 0 0.0 0.0 0.00 0.00 0.00 90 1017.9
20260902095107 23 0 0.0 0.0 0.00 0.00 0.00 90 1017.9
20260902092407 23 0 0.0 0.0 0.00 0.00 0.00 90 1017.8
20260902091507 23 0 0.0 0.0 0.00 0.00 0.00 89 1017.6
20260902090607 23 0 0.0 0.0 0.00 0.00 0.00 89 1017.7
20260902085707 23 0 0.0 0.0 0.00 0.00 0.00 89 1017.5
20260902084807 23 0 0.0 0.0 0.00 0.00 0.00 89 1017.5
20260902083907 23 0 0.0 0.0 0.00 0.00 0.00 89 1017.4
20260902083007 23 0 0.0 0.0 0.00 0.00 0.00 89 1017.3
20260902082108 23 0 0.0 0.0 0.00 0.00 0.00 88 1017.4
20260902081207 23 0 0.0 0.0 0.00 0.00 0.00 88 1017.3
20260902080307 23 0 0.0 0.0 0.00 0.00 0.00 88 1017.4
20260902074507 23 0 0.0 0.0 0.00 0.00 0.00 87 1017.2
20260902073607 23 0 0.0 0.0 0.00 0.00 0.00 87 1017.1
20260902072707 23 0 0.0 0.0 0.00 0.00 0.00 87 1017.2
20260902071807 23 0 0.0 0.0 0.00 0.00 0.00 87 1017.2
20260902070907 23 0 0.0 0.0 0.00 0.00 0.00 87 1017.2
20260902070007 23 0 0.0 0.0 0.00 0.00 0.00 87 1017.1
20260902064208 24 0 0.0 0.0 0.00 0.00 0.00 87 1017.3
20260902063307 24 0 0.0 0.0 0.00 0.00 0.00 87 1017.4
20260902062407 24 0 0.0 0.0 0.00 0.00 0.00 86 1017.3
20260902061507 24 0 0.0 0.0 0.00 0.00 0.00 86 1017.4
20260902060607 24 0 0.0 0.0 0.00 0.00 0.00 86 1017.4
20260902055708 24 0 0.0 0.0 0.00 0.00 0.00 86 1017.5
20260902054807 25 0 0.0 0.0 0.00 0.00 0.00 85 1017.5
20260902053907 25 0 0.0 0.0 0.00 0.00 0.00 85 1017.5
20260902052108 25 0 0.0 0.0 0.00 0.00 0.00 85 1017.4
20260902051208 25 0 0.0 0.0 0.00 0.00 0.00 84 1017.3
20260902050307 25 0 0.0 0.0 0.00 0.00 0.00 84 1017.3
20260902045407 25 0 0.0 0.0 0.00 0.00 0.00 84 1017.3
20260902044507 25 0 0.0 0.0 0.00 0.00 0.00 83 1017.3
20260902043607 25 0 0.0 0.0 0.00 0.00 0.00 83 1017.4
20260902042707 25 0 0.0 0.0 0.00 0.00 0.00 82 1017.4
20260902041808 25 0 0.0 0.0 0.00 0.00 0.00 82 1017.4
20260902040907 26 0 0.0 0.0 0.00 0.00 0.00 81 1017.5
20260902040007 26 0 0.0 0.0 0.00 0.00 0.00 81 1017.4
20260902035108 26 0 0.0 0.0 0.00 0.00 0.00 81 1017.3
20260902034206 26 0 0.0 0.0 0.00 0.00 0.00 81 1017.4
20260902033306 26 0 0.0 0.0 0.00 0.00 0.00 81 1017.3
20260902032407 26 0 0.0 0.0 0.00 0.00 0.00 81 1017.4
20260902031506 26 0 0.0 0.0 0.00 0.00 0.00 80 1017.4
20260902030606 26 0 0.0 0.0 0.00 0.00 0.00 80 1017.5
20260902025707 27 0 0.0 0.0 0.00 0.00 0.00 79 1017.4
20260902024806 27 0 0.0 0.0 0.00 0.00 0.00 79 1017.4
20260902023907 27 0 0.0 0.0 0.00 0.00 0.00 79 1017.4
20260902023006 27 0 0.0 0.0 0.00 0.00 0.00 78 1017.3
20260902022106 27 0 0.0 0.0 0.00 0.00 0.00 76 1017.4
20260902021206 27 0 0.0 0.0 0.00 0.00 0.00 75 1017.2
20260902020306 28 0 0.0 0.0 0.00 0.00 0.00 74 1017.1
20260902015406 28 0 0.0 0.0 0.00 0.00 0.00 74 1017.1
20260902013606 28 0 0.0 0.0 0.00 0.00 0.00 72 1017.0
20260902012706 29 0 0.0 0.0 0.00 0.00 0.00 71 1017.0